Location: Lewisville
(33.0462°N, 96.9942°W)
Time: 17:24:02
(UTC-06:00)

N. Korean satellite - Visible Passes

Search period start: 26 January 2020 00:00
Search period end: 05 February 2020 00:00
Orbit: 454 x 507 km, 97.2° (Epoch: 26 January)

Date Brightness Start Highest point End Pass type
(mag) Time Alt. Az. Time Alt. Az. Time Alt. Az.
26 Jan 8.7 05:39:58 10° NE 05:43:08 28° E 05:46:20 10° SSE visible
27 Jan 10.0 05:15:45 10° ENE 05:17:33 13° E 05:19:20 10° ESE visible
27 Jan 7.5 06:47:49 10° NNW 06:50:54 27° WNW 06:54:02 10° SW visible
28 Jan 6.5 06:21:56 10° N 06:25:30 64° WNW 06:29:08 10° SSW visible
28 Jan 9.8 18:27:51 10° SW 18:29:52 15° W 18:31:53 10° WNW visible
29 Jan 7.5 05:56:29 10° NNE 06:00:02 51° E 06:03:37 10° S visible
30 Jan 9.2 05:31:35 10° NE 05:34:29 22° E 05:37:25 10° SSE visible
31 Jan 10.3 05:08:29 10° E 05:08:51 10° E 05:09:14 10° E visible
31 Jan 7.2 06:38:57 10° N 06:42:19 36° WNW 06:45:42 10° SW visible
01 Feb 6.5 06:13:14 10° N 06:16:54 87° W 06:20:34 10° SSW visible
02 Feb 8.1 05:47:56 10° NNE 05:51:23 38° E 05:54:51 10° SSE visible
03 Feb 9.6 05:23:16 10° NE 05:25:49 17° E 05:28:20 10° SE visible
03 Feb 7.9 06:56:14 10° NNW 06:59:05 22° WNW 07:01:56 10° WSW visible
04 Feb 6.8 06:30:09 10° N 06:33:42 48° WNW 06:37:16 10° SSW visible
04 Feb 10.2 18:36:55 10° WSW 18:38:04 11° W 18:39:14 10° WNW visible
